Tracking 20942 objects as of 4-Jul-2020
HD Live streaming from Space Station
objects crossing your sky now

COSMOS 520

Track COSMOS 520 now!
COSMOS 520 is classified as:


NORAD ID: 6192
Int'l Code: 1972-072A
Perigee: 8,664.2 km
Apogee: 31,575.0 km
Inclination: 73.0 °
Period: 715.1 minutes
Semi major axis: 26490 km
RCS: 12.5618 m2 (large)
Launch date: September 19, 1972
Source: Commonwealth of Independent States (former USSR) (CIS)
Launch site: PLESETSK MISSILE AND SPACE COMPLEX (PKMTR)
aabbcc
Your satellite tracking list
Your tracking list is empty




NASA's NSSDC Master Catalog

Two Line Element Set (TLE):
1  6192U 72072A   20185.86438103 +.00000008 +00000-0 +00000-0 0  9993
2  6192 073.0037 299.4847 4324336 256.6136 052.5408 02.01356360351400
Source of the keplerian elements: AFSPC